timestamp,wind_dir_avg,wind_spd_avg,wind_spd_max_dir,wind_spd_gust,battery_voltage,lat,long
2023-07-29 00:04:00+00:00,248.0,3.05,251.0,3.63,12.81,47.59359,-54.27349
2023-07-29 00:14:01+00:00,294.0,5.38,296.0,6.1,12.41,47.59359,-54.27349
2023-07-29 00:24:01+00:00,0.0,5.2,2.0,6.58,12.41,47.59359,-54.27349
2023-07-29 00:34:01+00:00,334.0,5.88,334.0,6.27,12.41,47.59359,-54.27349
2023-07-29 00:44:01+00:00,29.0,3.47,28.0,3.68,12.41,47.59359,-54.27349
2023-07-29 00:54:01+00:00,9.0,2.61,15.0,3.43,12.41,47.59359,-54.27349
2023-07-29 01:04:01+00:00,353.0,3.83,352.0,4.26,12.41,47.59359,-54.27349
2023-07-29 01:14:01+00:00,352.0,5.79,357.0,6.86,12.41,47.59359,-54.27349
2023-07-29 01:24:01+00:00,6.0,6.66,3.0,7.32,12.41,47.59359,-54.27349
2023-07-29 01:34:01+00:00,10.0,5.16,7.0,6.27,12.41,47.59359,-54.27349
2023-07-29 01:44:01+00:00,5.0,6.09,356.0,6.88,12.41,47.59359,-54.27349
2023-07-29 01:54:01+00:00,18.0,5.47,26.0,6.28,12.41,47.59359,-54.27349
2023-07-29 02:04:01+00:00,31.0,5.38,34.0,6.08,12.41,47.59359,-54.27349
2023-07-29 02:14:01+00:00,42.0,4.65,42.0,5.07,12.41,47.59359,-54.27349
2023-07-29 02:24:01+00:00,67.0,3.47,61.0,4.03,12.41,47.59359,-54.27349
2023-07-29 02:34:01+00:00,62.0,2.2,63.0,2.62,12.41,47.59359,-54.27349
2023-07-29 02:44:01+00:00,29.0,2.14,32.0,2.26,12.41,47.59359,-54.27349
2023-07-29 02:54:01+00:00,31.0,3.88,40.0,4.48,12.41,47.59359,-54.27349
2023-07-29 03:04:01+00:00,24.0,3.72,37.0,4.3,12.41,47.59359,-54.27349
2023-07-29 03:14:00+00:00,31.0,3.26,36.0,3.58,12.41,47.59359,-54.27349
2023-07-29 03:24:00+00:00,24.0,2.74,25.0,2.98,12.41,47.59359,-54.27349
2023-07-29 03:34:00+00:00,14.0,2.09,13.0,2.48,12.41,47.59359,-54.27349
2023-07-29 03:44:00+00:00,12.0,2.33,14.0,2.58,12.41,47.59359,-54.27349
2023-07-29 03:54:00+00:00,6.0,1.72,6.0,2.14,12.41,47.59359,-54.27349
2023-07-29 04:04:00+00:00,28.0,0.99,28.0,1.11,12.41,47.59359,-54.27349
2023-07-29 04:14:00+00:00,14.0,1.67,13.0,1.79,12.33,47.59359,-54.27349
2023-07-29 04:24:00+00:00,10.0,1.51,11.0,1.72,12.33,47.59359,-54.27349
2023-07-29 04:34:00+00:00,359.0,2.57,358.0,2.66,12.33,47.59359,-54.27349
2023-07-29 04:44:00+00:00,354.0,2.61,354.0,2.78,12.33,47.59359,-54.27349
2023-07-29 04:54:00+00:00,350.0,2.82,353.0,3.04,12.33,47.59359,-54.27349
2023-07-29 05:04:00+00:00,341.0,2.57,346.0,2.86,12.33,47.59359,-54.27349
2023-07-29 05:14:00+00:00,347.0,1.9,349.0,2.05,12.33,47.59359,-54.27349
2023-07-29 05:24:00+00:00,332.0,2.17,332.0,2.35,12.33,47.59359,-54.27349
2023-07-29 05:34:00+00:00,333.0,1.78,334.0,2.05,12.33,47.59359,-54.27349
2023-07-29 05:44:00+00:00,347.0,1.58,349.0,1.8,12.33,47.59359,-54.27349
2023-07-29 05:54:00+00:00,348.0,2.31,347.0,2.48,12.33,47.59359,-54.27349
2023-07-29 06:04:00+00:00,332.0,1.97,329.0,2.06,12.33,47.59359,-54.27349
2023-07-29 06:14:00+00:00,345.0,1.94,346.0,2.13,12.33,47.59359,-54.27349
2023-07-29 06:24:00+00:00,335.0,1.93,340.0,2.19,12.33,47.59359,-54.27349
2023-07-29 06:34:00+00:00,346.0,0.97,350.0,1.23,12.33,47.59359,-54.27349
2023-07-29 06:44:00+00:00,329.0,0.73,327.0,0.88,12.33,47.59359,-54.27349
2023-07-29 06:54:00+00:00,345.0,1.35,334.0,1.56,12.33,47.59359,-54.27349
2023-07-29 07:04:00+00:00,343.0,0.52,344.0,0.63,12.33,47.59359,-54.27349
2023-07-29 07:14:01+00:00,5.0,0.41,359.0,0.57,12.33,47.59359,-54.27349
2023-07-29 07:24:01+00:00,348.0,0.43,341.0,0.67,12.33,47.59359,-54.27349
2023-07-29 07:34:01+00:00,322.0,2.0,325.0,2.22,12.33,47.59359,-54.27349
2023-07-29 07:44:01+00:00,329.0,1.55,333.0,1.86,12.33,47.59359,-54.27349
2023-07-29 07:54:01+00:00,295.0,0.82,299.0,1.0,12.33,47.59359,-54.27349
2023-07-29 08:04:01+00:00,249.0,1.56,248.0,1.81,12.33,47.59359,-54.27349
2023-07-29 08:14:01+00:00,282.0,2.18,280.0,2.33,12.25,47.59359,-54.27349
2023-07-29 08:24:01+00:00,253.0,1.82,253.0,2.03,12.25,47.59359,-54.27349
2023-07-29 08:34:01+00:00,235.0,1.92,236.0,2.14,12.25,47.59359,-54.27349
2023-07-29 08:44:01+00:00,243.0,1.81,242.0,2.05,12.25,47.59359,-54.27349
2023-07-29 08:54:01+00:00,247.0,1.85,254.0,2.05,12.25,47.59359,-54.27349
2023-07-29 09:04:01+00:00,253.0,1.74,253.0,2.08,12.25,47.59359,-54.27349
2023-07-29 09:14:00+00:00,254.0,2.51,252.0,2.85,12.49,47.59359,-54.27349
2023-07-29 09:24:00+00:00,236.0,2.62,236.0,2.95,12.49,47.59359,-54.27349
2023-07-29 09:34:00+00:00,219.0,2.55,224.0,2.88,12.49,47.59359,-54.27349
2023-07-29 09:44:00+00:00,219.0,3.15,218.0,3.58,12.49,47.59359,-54.27349
2023-07-29 09:54:00+00:00,233.0,3.02,238.0,3.47,12.49,47.59359,-54.27349
2023-07-29 10:04:00+00:00,259.0,4.39,258.0,5.05,12.49,47.59359,-54.27349
2023-07-29 10:14:00+00:00,250.0,3.88,251.0,4.11,12.89,47.59359,-54.27349
2023-07-29 10:24:00+00:00,241.0,3.65,250.0,4.31,12.89,47.59359,-54.27349
2023-07-29 10:34:00+00:00,254.0,2.37,255.0,2.55,12.89,47.59359,-54.27349
2023-07-29 10:44:00+00:00,313.0,1.13,321.0,1.46,12.89,47.59359,-54.27349
2023-07-29 10:54:00+00:00,22.0,0.98,23.0,1.28,12.89,47.59359,-54.27349
2023-07-29 11:04:00+00:00,68.0,0.99,73.0,1.24,12.89,47.59359,-54.27349
2023-07-29 11:14:00+00:00,126.0,1.44,131.0,1.74,13.29,47.59359,-54.27349
2023-07-29 11:24:00+00:00,208.0,1.47,209.0,1.75,13.29,47.59359,-54.27349
2023-07-29 11:34:00+00:00,183.0,2.34,183.0,2.72,13.29,47.59359,-54.27349
2023-07-29 11:44:00+00:00,181.0,1.82,186.0,2.0,13.29,47.59359,-54.27349
2023-07-29 11:54:00+00:00,178.0,1.54,177.0,1.73,13.29,47.59359,-54.27349
2023-07-29 12:04:00+00:00,194.0,2.36,194.0,2.66,13.29,47.59359,-54.27349
2023-07-29 12:14:00+00:00,197.0,2.55,199.0,2.73,13.76,47.59359,-54.27349
2023-07-29 12:24:00+00:00,205.0,3.25,209.0,3.72,13.76,47.59359,-54.27349
2023-07-29 12:34:00+00:00,198.0,4.48,195.0,5.7,13.76,47.59359,-54.27349
2023-07-29 12:44:00+00:00,196.0,5.0,194.0,5.29,13.76,47.59359,-54.27349
2023-07-29 12:54:00+00:00,202.0,5.14,203.0,5.51,13.76,47.59359,-54.27349
2023-07-29 13:04:00+00:00,207.0,5.0,208.0,5.47,13.76,47.59359,-54.27349
2023-07-29 13:14:00+00:00,204.0,6.21,204.0,7.04,13.53,47.59359,-54.27349
2023-07-29 13:24:00+00:00,203.0,5.48,203.0,6.14,13.53,47.59359,-54.27349
2023-07-29 13:34:00+00:00,203.0,5.58,205.0,6.11,13.53,47.59359,-54.27349
2023-07-29 13:44:00+00:00,213.0,7.56,216.0,8.67,13.53,47.59359,-54.27349
2023-07-29 13:54:00+00:00,211.0,7.37,215.0,8.71,13.53,47.59359,-54.27349
2023-07-29 14:04:00+00:00,211.0,9.41,216.0,10.39,13.53,47.59359,-54.27349
2023-07-29 14:14:01+00:00,216.0,9.64,215.0,10.81,14.0,47.59359,-54.27349
2023-07-29 14:24:01+00:00,212.0,9.84,210.0,11.18,14.0,47.59359,-54.27349
2023-07-29 14:34:01+00:00,217.0,8.35,217.0,9.74,14.0,47.59359,-54.27349
2023-07-29 14:44:01+00:00,215.0,8.89,216.0,9.71,14.0,47.59359,-54.27349
2023-07-29 14:54:01+00:00,211.0,8.75,203.0,10.1,14.0,47.59359,-54.27349
2023-07-29 15:04:01+00:00,213.0,9.63,216.0,10.72,14.0,47.59359,-54.27349
2023-07-29 15:14:00+00:00,220.0,8.16,216.0,9.05,13.76,47.59359,-54.27349
2023-07-29 15:24:00+00:00,221.0,8.44,220.0,9.35,13.76,47.59359,-54.27349
2023-07-29 15:34:00+00:00,216.0,9.07,217.0,10.47,13.76,47.59359,-54.27349
2023-07-29 15:44:00+00:00,226.0,8.45,221.0,9.75,13.76,47.59359,-54.27349
2023-07-29 15:54:00+00:00,217.0,9.31,215.0,10.75,13.76,47.59359,-54.27349
2023-07-29 16:04:00+00:00,217.0,8.59,215.0,9.98,13.76,47.59359,-54.27349
2023-07-29 16:14:00+00:00,213.0,9.11,215.0,10.77,13.68,47.59359,-54.27349
2023-07-29 16:24:00+00:00,212.0,8.43,212.0,10.31,13.68,47.59359,-54.27349
2023-07-29 16:34:00+00:00,213.0,9.51,215.0,10.31,13.68,47.59359,-54.27349
2023-07-29 16:44:00+00:00,211.0,10.15,211.0,11.7,13.68,47.59359,-54.27349
2023-07-29 16:54:00+00:00,214.0,10.89,215.0,12.08,13.68,47.59359,-54.27349
2023-07-29 17:04:00+00:00,215.0,11.16,216.0,12.35,13.68,47.59359,-54.27349
2023-07-29 17:14:01+00:00,216.0,10.41,214.0,11.84,13.6,47.59359,-54.27349
2023-07-29 17:24:01+00:00,215.0,10.45,211.0,12.33,13.6,47.59359,-54.27349
2023-07-29 17:34:01+00:00,214.0,10.59,210.0,12.09,13.6,47.59359,-54.27349
2023-07-29 17:44:01+00:00,213.0,10.58,215.0,12.38,13.6,47.59359,-54.27349
2023-07-29 17:54:01+00:00,210.0,10.95,207.0,12.49,13.6,47.59359,-54.27349
2023-07-29 18:04:01+00:00,211.0,11.3,210.0,12.55,13.6,47.59359,-54.27349
2023-07-29 18:14:00+00:00,212.0,11.35,212.0,13.01,13.37,47.59359,-54.27349
2023-07-29 18:24:00+00:00,212.0,11.88,215.0,13.64,13.37,47.59359,-54.27349
2023-07-29 18:34:00+00:00,210.0,10.48,211.0,12.26,13.37,47.59359,-54.27349
2023-07-29 18:44:00+00:00,212.0,11.03,214.0,12.83,13.37,47.59359,-54.27349
2023-07-29 18:54:00+00:00,211.0,10.69,212.0,12.29,13.37,47.59359,-54.27349
2023-07-29 19:04:00+00:00,212.0,10.8,211.0,11.85,13.37,47.59359,-54.27349
2023-07-29 19:14:00+00:00,213.0,10.06,212.0,11.4,13.6,47.59359,-54.27349
2023-07-29 19:24:00+00:00,213.0,9.99,211.0,10.88,13.6,47.59359,-54.27349
2023-07-29 19:34:00+00:00,212.0,9.73,211.0,10.68,13.6,47.59359,-54.27349
2023-07-29 19:44:00+00:00,214.0,9.14,213.0,10.24,13.6,47.59359,-54.27349
2023-07-29 19:54:00+00:00,210.0,10.91,212.0,12.08,13.6,47.59359,-54.27349
2023-07-29 20:04:00+00:00,212.0,10.21,212.0,11.3,13.6,47.59359,-54.27349
2023-07-29 20:14:00+00:00,211.0,9.91,205.0,11.44,13.29,47.59359,-54.27349
2023-07-29 20:24:00+00:00,213.0,10.0,213.0,10.92,13.29,47.59359,-54.27349
2023-07-29 20:34:00+00:00,211.0,9.58,212.0,10.55,13.29,47.59359,-54.27349
2023-07-29 20:44:00+00:00,213.0,10.09,203.0,11.97,13.29,47.59359,-54.27349
2023-07-29 20:54:00+00:00,217.0,9.59,215.0,11.21,13.29,47.59359,-54.27349
2023-07-29 21:04:00+00:00,216.0,9.3,216.0,10.61,13.29,47.59359,-54.27349
2023-07-29 21:14:00+00:00,216.0,9.03,214.0,10.54,13.29,47.59359,-54.27349
2023-07-29 21:24:00+00:00,216.0,9.47,216.0,10.67,13.29,47.59359,-54.27349
2023-07-29 21:34:00+00:00,216.0,8.28,215.0,9.18,13.29,47.59359,-54.27349
2023-07-29 21:44:00+00:00,217.0,8.56,218.0,9.46,13.29,47.59359,-54.27349
2023-07-29 21:54:00+00:00,221.0,7.19,225.0,8.56,13.29,47.59359,-54.27349
2023-07-29 22:04:00+00:00,221.0,7.19,213.0,9.52,13.29,47.59359,-54.27349
2023-07-29 22:14:00+00:00,203.0,7.51,201.0,8.94,13.05,47.59359,-54.27349
2023-07-29 22:24:00+00:00,200.0,8.93,202.0,10.35,13.05,47.59359,-54.27349
2023-07-29 22:34:00+00:00,203.0,7.93,204.0,8.92,13.05,47.59359,-54.27349
2023-07-29 22:44:00+00:00,211.0,8.71,214.0,9.74,13.05,47.59359,-54.27349
2023-07-29 22:54:00+00:00,212.0,8.84,213.0,9.79,13.05,47.59359,-54.27349
2023-07-29 23:04:00+00:00,216.0,7.7,208.0,10.15,13.05,47.59359,-54.27349
2023-07-29 23:14:00+00:00,214.0,7.11,215.0,7.6,12.81,47.59359,-54.27349
2023-07-29 23:24:00+00:00,213.0,6.4,212.0,6.94,12.81,47.59359,-54.27349
2023-07-29 23:34:00+00:00,204.0,8.1,203.0,8.99,12.81,47.59359,-54.27349
2023-07-29 23:44:00+00:00,209.0,7.76,213.0,8.55,12.81,47.59359,-54.27349
2023-07-29 23:54:00+00:00,211.0,6.67,213.0,7.29,12.81,47.59359,-54.27349
